Regional Weather Roundup
Issued by NWS Wakefield, VA

Home | Current Version | Previous Version | Text Only | Print | Product List | Glossary Off
Versions: 1 2 3 4 5 6 7 8 9 10 11 12 13 14 15 16 17 18 19 20 21 22 23 24 25 26 27 28 29 30 31 32 33 34 35 36 37 38 39 40 41 42 43 44 45 46 47 48 49 50

000
ASUS41 KAKQ 281410
RWRAKQ

REGIONAL WEATHER ROUNDUP
NATIONAL WEATHER SERVICE WAKEFIELD VA
900 AM EST SAT FEB 28 2015

Note: "fair" indicates few or no clouds below 12,000 feet with no
significant weather and/or obstructions to visibility. * = Denotes
station may not report precipitation (e.g., rain,snow,etc.),
thunder or fog.

VAZ042-051-052>054-056-281500-
NORTHERN VIRGINIA

CITY           SKY/WX    TMP DP  RH WIND       PRES   REMARKS
WASH NATIONAL  PTSUNNY   23   0  36 N9        30.87R
DULLES         PTSUNNY   17  -1  45 NE5       30.85R
FORT BELVOIR   SUNNY     22  -1  36 N6        30.86R
QUANTICO       MOSUNNY   22   0  38 N8        30.88R
FREDERICKSBRG* MOSUNNY   23   3  41 N8        30.86R
STAFFORD*      MOSUNNY   20  -2  37 N6        30.90R
WARRENTON      MOSUNNY   21   9  58 N3        30.85R
CULPEPER*      SUNNY     21   5  49 N5        30.86R
MANASSAS*      SUNNY     19   7  58 N7        30.85R
LEESBURG*      SUNNY     21   3  45 N5        30.84S
WINCHESTER     SUNNY     19  -4  35 CALM      30.81R
FRONT ROYAL*   FAIR      18   1  49 CALM      30.81R
LURAY*         FAIR      21   7  53 CALM      30.80R
$$

VAZ048-049-060>072-079>083-281500-
CENTRAL AND SOUTH CENTRAL VIRGINIA

CITY           SKY/WX    TMP DP  RH WIND       PRES   REMARKS
RICHMOND       CLOUDY    25   4  40 NE10      30.85R WCI  15
CHESTERFIELD*  FAIR      25  -2  30 NE10      30.85R WCI  15
PETERSBURG*    SUNNY     26   4  38 N12       30.85R WCI  16
HANOVER        MOSUNNY   24   2  38 N8        30.86R
TAPPAHANNOCK*  MOSUNNY   24  -2  32 N7        30.85R
QUINTON*       FAIR      23   3  42 N3        30.85R
CHARLOTTSVILLE SUNNY     18   2  49 N3        30.83R
GORDONSVILLE*  FAIR      18   1  46 CALM      30.84R
ORANGE*        SUNNY     21   3  45 N9        30.85R
LOUISA*        MOSUNNY   21   1  42 NE10G16   30.82R WCI  10
BUMPASS*       FAIR      21   1  40 NE5       30.83R
FARMVILLE*     MOSUNNY   26   6  43 NE5       30.82R
CREWE*         FAIR      24   1  37 NE5       30.82R
FORT PICKETT*  FAIR      24   3  41 NE12      30.82R WCI  12
CHASE CITY*    FAIR      26   8  46 E7        30.81R
CLARKSVILLE*   FAIR      25   7  46 E7        30.81R
SOUTH HILL*    SUNNY     23   3  42 NE6       30.87R
LAWRENCEVILLE* FAIR      24   5  44 NE3       30.81R
EMPORIA*       MOSUNNY   25   7  46 N9        30.85R
$$

VAZ088>098-281500-
SOUTHEAST VIRGINIA

CITY           SKY/WX    TMP DP  RH WIND       PRES   REMARKS
NORFOLK        SUNNY     26  13  57 NE15      30.81R WCI  14
VIRGINIA BEACH PTSUNNY   28  15  58 NE13      30.80R WCI  17
NORFOLK NAVAL  PTSUNNY   29  15  56 NE13      30.84R WCI  19
WEST POINT*    SUNNY     27   5  39 NW8       30.86R
SALUDA*        FAIR      23   9  55 N6        30.83R
NEWPORT NEWS   SUNNY     28  12  51 N9        30.83R
LANGLEY AFB    SUNNY     26  11  52 NE13      30.83R WCI  15
FORT EUSTIS    MOSUNNY   26  12  55 N7        30.83R
WILLIAMSBURG*  SUNNY     27  16  63 NE7       30.85R
HR EXEC AP*    FAIR      28  12  50 NE13      30.84R WCI  18
FRANKLIN*      MOSUNNY   26  10  51 N8        30.85R
WAKEFIELD      MOSUNNY   26   7  44 N8        30.85R
$$

VAZ020-022-025-037-045-281500-
WEST CENTRAL AND SOUTHWEST VIRGINIA

CITY           SKY/WX    TMP DP  RH WIND       PRES   REMARKS
STAUNTON*      SUNNY     15   2  58 CALM      30.79R
WAYNESBORO*    FAIR      13   2  62 NW3       30.75R
HOT SPRINGS VA CLOUDY    13   2  62 SE6       30.51R
LYNCHBURG      SUNNY     19   4  51 NE12      30.80R WCI   7
DANVILLE       CLOUDY    25  10  53 NE9       30.80R
SOUTH BOSTON*  FAIR      24   5  44 E6        30.82R
MARTINSVILLE   CLOUDY    26  11  53 E6        30.80R
ROANOKE        PTSUNNY   20   9  62 SE6       30.77R
BLACKSBURG     PTSUNNY   20   8  61 E6        30.68R
DUBLIN*        SUNNY     19  11  70 CALM      30.67R
MARION*        SUNNY     17   7  65 NE10      30.63R WCI   4
HILLSVILLE*    CLOUDY    19  10  69 CALM      30.60R
RICHLANDS*     FAIR      25  10  54 E6        30.53R
WISE*          SUNNY     27  10  50 SE3       30.53R
ABINGDON*      SUNNY     24  11  58 E12       30.57R WCI  13
$$

MDZ021>025-VAZ099-100-281500-
SOUTHERN MARYLAND AND THE DELMARVA PENINSULA

CITY           SKY/WX    TMP DP  RH WIND       PRES   REMARKS
PATUXENT RIVER CLOUDY    22   6  50 N15       30.85R WCI   9
BAY BRIDGE APT   N/A     21   3  45 N8        30.86R
LEONARDTOWN    MOSUNNY   21   5  49 N6        30.86R
DOVER          MOSUNNY   21   5  48 N13       30.85R WCI   9
GEORGETOWN     MOSUNNY   27   4  37 N12       30.84R WCI  17
EASTON         MOSUNNY   21   7  53 NE9       30.88R
CAMBRIDGE      MOSUNNY   23   5  46 N7        30.84R
SALISBURY      MOSUNNY   24   8  50 VRB7      30.83R
OCEAN CITY     SUNNY     23   7  50 NE15G21   30.82R WCI  10
WALLOPS ISLAND SUNNY     22   9  57 N8        30.82R
ACCOMACK*      SUNNY     23   5  46 N8        30.82R
$$

NCZ012>017-030>032-281500-
NORTH CENTRAL AND EASTERN NORTH CAROLINA

CITY           SKY/WX    TMP DP  RH WIND       PRES   REMARKS
ROANOKE RAPIDS FAIR      28   9  43 NE10      30.83R WCI  19
RALEIGH        PTSUNNY   27  14  58 E13       30.78R WCI  16
ELIZABETH CITY SUNNY     30  17  58 N14       30.78R WCI  19
AHOSKIE*       MOSUNNY   27  10  49 N12G17    30.82R WCI  16
EDENTON*       SUNNY     31  15  52 NE14G21   30.78R WCI  21
CURRITUCK*     SUNNY     30  16  55 N15       30.78R WCI  19
KILL DEVIL HLS SUNNY     33  23  66 N12G18    30.75S WCI  24
MANTEO         SUNNY     34  23  64 N18G25    30.76S WCI  23
CAPE HATTERAS  CLOUDY    35  27  72 N15G28    30.70R
TARBORO*       FAIR      30  17  58 N13       30.81R WCI  20
GOLDSBORO      SUNNY     31  23  72 NE8G18    30.74R
WASHINGTON     SUNNY     31  16  55 NE10G17   30.76R WCI  22
GREENVILLE     MOSUNNY   32  19  59 NE14      30.76R WCI  22
NEW BERN       MOSUNNY   31  21  66 NE13      30.74R WCI  21
WILMINGTON     PTSUNNY   33  26  75 NE16      30.69R WCI  23
$$

VAZ048-281500-
ELSEWHERE

CITY           SKY/WX    TMP DP  RH WIND       PRES   REMARKS
HARRISBURG PA  MOSUNNY   21   1  41 N7        30.82R
BALTIMORE      PTSUNNY   19  -1  41 VRB5      30.85R
ANNAPOLIS      MOSUNNY   21   2  43 N8        30.86R
ANDREWS AFB    MOSUNNY   20  -1  39 N10       30.84R WCI   9
PHILADELPHIA   MOSUNNY   20  -2  38 N9        30.86R
HENDERSON NC   MOSUNNY   24   8  51 NE12      30.79R WCI  13
GREENSBORO     CLOUDY    25  18  74 E12       30.73R WCI  14
ROCKY MOUNT    MOSUNNY   29  13  51 N20       30.80R WCI  16
$$

VAZ100-281500-
MARINE

STATION/POSITION TIME  TEMP    WIND        PRES    WAVE   SWELL
                       AIR SEA DIR/SP/G            HT/PER HT/PER
                 (UTC) (F)     (DEG/KT/KT) (MB)    (FT/S) (FT/S)
BRANDYWINE LGT   1400   19 29   20/ 14/ 15 1044.1R
CAPE MAY NJ      1400   20 32   20/  8/ 13 1043.6S
LEWES DE         1400   21 30   30/ 12/ 15 1043.9R
15NM E FENWICK I 1400   24 36              1043.0R   5/10
OCEAN-CITY-INLET 1400   24 31   30/  7/ 12 1043.3R
WACHAPREAGUE VA  1400   23 32   20/  5/  8 1043.2S
THOMAS POINT MD  1400   19 30   20/ 14/ 15 1045.8R
COVE POINT MD    1400   20      30/ 13/ 17 1044.3R
SOLOMONS ISLAND  1400      32                N/A
BISHOPS HEAD MD  1400   21 30   20/ 10/ 15 1043.4F
CAMBRIDGE MD     1400   19 32   10/  7/  8 1044.3R
LEWISETTA VA     1400           10/  3/  7   N/A
RAPPAHANNOCK LGT 1400           10/ 16/ 19   N/A
STINGRAY PT      1400   25 31   30/ 14/ 17   N/A     2/ 3
YORK RVR RNG VA  1400   26      20/ 13/ 16 1042.9R
YORKTOWN VA      1400   24 32  360/  8/ 12 1043.6R
DOMINION TERM VA 1400   27      40/  5/  9 1043.5R
KIPTOPEKE VA     1400           10/ 10/ 12   N/A
CHES BAY BRIDGE  1400   25 32   20/ 12/ 15 1043.0R
CAPE HENRY VA    1400   24      10/ 14/ 16 1041.8R
CHESAPEAKE LGHT  1300   26      10/ 18/ 19 1042.6R
WILLOUBY STN VA  1400           30/ 14/ 16   N/A
S CRANEY ISL VA  1400           40/ 11/ 15 1043.4R
CAPE HENRY BUOY  1400      35                N/A     5/ 6   2/11
1ST LANDING BUOY 1400   26 32   20/ 12/ 14 1043.2R   3/ 4
OFFSHORE WE BUOY 1400      37                N/A     6/10   3/10
64NM E OF VA BCH 1400   36 55   10/ 21/ 25 1040.3R   7/11   3/11
DUCK PIER NC     1400   30 34   20/ 18/ 21 1040.9S
44100 DUCK FRF   1300      36                N/A     7/ 6   2/11
44056 DUCK FRF   1400      34                N/A     6/ 6   2/11
OREGON INLET NC  1400   34 37  360/ 14/ 21 1041.0F
HATTERAS NC      1400   35 39   10/ 27/ 30 1039.4R
CAPE LOOKOUT NC  1400   35      20/ 17/ 22 1038.9R
$$


USA.gov is the U.S. government's official web portal to all federal, state and local government web resources and services.